BEIDOU IGSO-7 (C16)

Last updated on Jan. 16, 2020, 4:33 a.m. UTC

1 43539U 18057A   20015.53971404 -.00000084  00000-0  00000+0 0  9998
2 43539  55.0390 183.6560 0024962 196.3770  41.5968  1.00263909  5641
UTC
Height (km)
Latitude
Longitude
Inclination
Orbital Period
UTC large
Height (km)
Speed (km/s)
/
Latitude / Longitude
Inclination (degrees)
Orbital Period (minutes)
Azimuth
Elevation
Range (km)
Doppler Factor
iOS Compass Heading
iOS Angle

Next 30 passes for location: Hong Kong

Rise time Rise Azimuth (degrees) Set time Set Azimuth (degrees) Duration Max altitude (degrees)

No matching passes for this satellites